Cloud_Cover
100 43 6 83 32 100 100 31 14 7 0 0 0 4 24 6 5 3 33 82 0 0 0 1 0 2 6 0 0 0 0 0 0 0 0 0 14 1 0 0 0 0 2 48 58 55 6 0 0
97 100 100 8 65 64 100 100 100 65 2 0 0 7 62 64 5 3 9 1 0 0 0 0 0 4 8 2 5 5 2 5 0 0 0 1 10 15 0 0 0 0 0 1 4 12 2 4 1
78 100 58 32 96 78 100 100 100 79 0 0 0 5 11 4 2 7 0 0 0 0 0 0 0 0 0 0 0 0 0 10 0 0 0 0 0 0 0 0 0 0 19 6 20 5 0 7 0
82 78 59 70 85 85 100 100 100 99 33 5 0 0 0 0 5 20 3 0 0 0 0 0 0 0 0 0 0 0 31 8 0 0 1 0 0 0 0 0 0 0 0 71 36 14 0 0 0
100 100 68 87 77 83 100 100 100 100 99 5 1 2 0 1 2 11 81 5 0 0 0 0 0 0 0 0 0 0 0 0 0 0 3 36 0 0 0 0 0 0 0 0 0 0 0 0 0
100 100 89 28 62 75 74 100 100 100 21 5 5 5 5 5 0 9 100 100 4 3 3 0 29 0 0 0 0 0 0 0 0 0 0 0 0 0 0 0 0 0 0 30 6 0 0 0 0
100 100 73 27 70 100 100 100 100 100 80 68 2 5 46 37 8 5 100 88 33 9 5 5 0 0 2 0 0 0 0 0 0 0 0 0 0 0 0 0 0 0 0 1 11 4 0 0 10
100 100 59 73 89 95 78 89 100 100 100 78 3 0 4 64 99 89 100 43 5 5 5 1 0 0 0 0 7 0 5 5 0 2 0 0 0 0 0 0 0 0 0 0 0 0 0 0 0
100 100 100 98 63 100 100 100 100 100 100 46 4 4 6 100 66 89 95 50 5 4 1 1 0 0 0 4 21 67 26 2 0 3 2 0 4 98 36 16 0 0 0 0 1 0 0 0 2
100 100 92 99 100 59 99 100 98 100 100 98 81 67 5 28 100 100 100 98 5 0 0 0 3 0 2 2 17 1 54 5 2 12 3 54 95 100 100 7 7 0 0 0 0 0 15 5 5
100 100 100 100 100 90 94 100 100 100 100 100 100 100 5 5 9 79 73 22 12 0 5 5 5 6 11 2 3 3 92 100 98 100 29 87 69 100 100 0 0 0 4 6 5 5 4 4 0
94 98 100 100 100 99 100 100 100 100 100 97 100 100 100 100 100 100 12 18 22 23 6 5 14 29 57 43 12 6 88 30 14 25 18 6 9 32 6 6 70 95 31 43 12 3 4 5 4
100 84 88 100 100 100 100 100 100 100 100 100 100 100 100 100 100 100 100 100 100 42 20 48 39 32 24 7 53 33 36 93 100 93 100 70 5 14 15 5 5 12 49 40 47 10 4 1 0
100 100 99 62 36 100 100 100 100 100 100 100 100 100 100 100 100 100 100 100 100 33 100 93 19 72 70 5 5 16 8 24 20 65 10 5 5 10 14 27 63 44 69 65 100 100 23 0 2
100 100 100 92 98 100 100 100 100 88 100 100 100 100 100 100 100 100 100 100 100 100 100 100 82 5 5 5 5 5 5 5 6 5 5 78 58 100 88 97 95 100 79 80 31 16 7 17 46
99 100 100 100 100 100 100 100 98 48 99 91 97 100 100 100 100 100 100 100 100 100 100 100 100 12 5 6 5 5 5 5 5 5 5 5 68 100 100 100 100 100 100 97 91 94 51 44 67
7 100 100 100 99 100 100 100 100 93 18 100 100 100 100 100 100 100 100 100 100 100 100 100 100 100 73 8 6 5 5 5 4 5 5 2 7 26 18 25 92 100 100 100 100 35 82 90 10
89 99 100 100 100 100 100 100 100 100 79 11 100 100 100 100 89 100 100 100 100 100 100 100 100 100 88 52 25 83 54 20 82 8 5 5 5 5 5 56 81 100 98 87 92 30 91 100 14
100 43 91 100 100 100 99 100 100 100 100 88 12 100 100 82 100 100 100 100 100 100 100 100 100 100 100 100 100 100 100 100 100 100 100 100 33 5 66 53 83 100 100 100 100 100 100 40 1
70 77 12 46 100 100 100 100 52 70 100 51 7 12 75 100 100 100 100 100 100 100 100 100 95 100 100 100 100 100 100 100 100 100 89 99 73 53 100 100 100 100 100 100 100 94 5 4 1
100 100 100 98 48 60 100 100 100 99 78 93 56 20 29 48 100 100 100 100 56 62 86 92 66 71 98 87 100 100 100 100 73 47 49 18 29 45 100 100 100 100 100 70 22 5 5 20 37
100 100 100 98 86 37 16 92 100 100 100 100 100 100 96 6 41 50 85 94 100 16 73 94 70 43 40 41 95 100 94 69 66 52 79 99 100 100 100 100 100 25 26 16 5 30 100 22 5
100 100 100 40 5 24 82 7 100 100 100 100 100 100 100 78 58 96 90 97 66 57 100 100 99 100 100 100 90 66 5 51 88 100 99 100 98 98 57 5 6 84 100 23 68 65 20 8 9
100 100 100 66 5 4 61 11 33 100 100 100 100 100 100 88 31 100 100 100 100 100 83 90 49 79 92 71 32 10 5 34 99 100 92 8 74 55 30 53 100 100 84 81 53 13 5 18 5
100 100 100 100 22 2 32 13 5 100 80 64 100 73 33 14 39 53 94 99 62 16 10 21 38 25 38 20 13 12 10 53 28 59 86 100 70 70 98 100 100 91 75 8 20 5 5 5 5
100 100 100 100 87 5 5 5 15 9 99 99 80 73 59 5 6 29 38 42 36 48 73 97 100 100 100 95 99 100 100 100 100 100 92 100 100 100 100 100 94 100 70 53 17 5 5 5 5
82 100 100 100 98 23 3 1 5 5 8 37 94 100 97 10 6 5 5 5 7 31 59 48 36 74 99 100 100 100 100 100 77 65 80 81 96 100 46 36 92 79 34 5 5 0 0 1 5
51 92 100 100 100 72 5 5 5 27 34 43 88 100 89 87 16 5 28 74 45 50 22 15 14 69 81 54 71 75 71 60 62 48 96 100 100 94 81 59 30 5 5 0 1 2 5 5 4
95 88 87 100 100 98 18 6 5 6 57 100 100 100 100 44 11 26 25 11 5 8 55 57 77 73 53 21 5 25 17 23 8 32 22 7 6 5 5 5 5 4 5 5 10 27 5 5 4
96 52 9 27 68 69 72 51 98 73 73 71 100 100 77 5 5 5 6 55 78 96 100 96 93 97 100 79 34 34 46 6 5 5 17 7 5 5 5 5 5 10 64 32 5 0 0 0 5